Weather History for Rogers, AR

Change the Weather History Date:

Sunday, May 26, 2013

  Actual Average Record
Temperature  
Mean Temperature 74 °F -  
Max Temperature 84 °F 74 °F 93 °F (2012)
Min Temperature 64 °F 56 °F 44 °F (2003)
Cooling Degree Days 9    
Growing Degree Days 24 (Base 50)    
Moisture  
Dew Point 63 °F    
Average Humidity 66    
Maximum Humidity 93    
Minimum Humidity 47    
Precipitation  
Precipitation 0.00 in - - ()
Sea Level Pressure  
Sea Level Pressure 30.05 in    
Wind  
Wind Speed 11 mph (SSE)    
Max Wind Speed 20 mph    
Max Gust Speed 28 mph    
Visibility 10 miles    
Events      
Averages and records for this station are not official NWS values.
T = Trace of Precipitation, MM = Missing Value Source: NWS Daily Summary

Daily Weather History Graph

Daily Weather History Graph

Search for Another Location

Airport:

Trip Planner

Search our weather history database for the weather conditions in past years. The results will help you decide how hot, cold, wet, or windy it might be!

Date:

Astronomy

May. 26, 2013 Rise Set
Actual Time 6:02 AM CDT 8:24 PM CDT
Civil Twilight 5:32 AM CDT 8:54 PM CDT
Nautical Twilight 4:56 AM CDT 9:30 PM CDT
Astronomical Twilight 4:16 AM CDT 10:11 PM CDT
Moon 10:13 PM CDT (5/26) 7:32 AM CDT (5/26)
Length of Visible Light 15h 21m
Length of Day
14h 22m
Waning Gibbous, 96% of the Moon is Illuminated
May 26
Waning Gibbous
May 31
Last Quarter
Jun 8
New
Jun 16
First Quarter
Jun 23
Full

Hourly Weather History & Observations

Time (CDT) Temp. Heat Index Dew Point Humidity Pressure Visibility Wind Dir Wind Speed Gust Speed Precip Events Conditions
12:57 AM 66.9 °F - 61.0 °F 81% 30.13 in 10.0 mi SSE 6.9 mph - N/A   Clear
1:57 AM 66.9 °F - 62.1 °F 84% 30.10 in 10.0 mi SE 6.9 mph - N/A   Clear
4:57 AM 64.9 °F - 62.1 °F 90% 30.07 in 10.0 mi SE 5.8 mph - N/A   Clear
5:57 AM 64.0 °F - 62.1 °F 93% 30.09 in 10.0 mi SE 8.1 mph - N/A   Partly Cloudy
7:57 AM 68.0 °F - 63.0 °F 84% 30.09 in 10.0 mi SE 10.4 mph - N/A   Clear
8:57 AM 73.0 °F - 64.0 °F 73% 30.09 in 10.0 mi South 9.2 mph - N/A   Clear
9:57 AM 78.1 °F - 64.0 °F 62% 30.10 in 10.0 mi SSW 12.7 mph - N/A   Clear
10:57 AM 81.0 °F 82.2 °F 63.0 °F 54% 30.10 in 10.0 mi SSW 17.3 mph 26.5 mph N/A   Clear
11:57 AM 82.0 °F 83.8 °F 64.9 °F 56% 30.11 in 10.0 mi SSW 19.6 mph 27.6 mph N/A   Partly Cloudy
12:57 PM 80.1 °F 81.9 °F 64.9 °F 60% 30.09 in 10.0 mi South 15.0 mph 21.9 mph N/A   Mostly Cloudy
1:57 PM 82.9 °F 84.6 °F 64.9 °F 54% 30.07 in 10.0 mi SSW 17.3 mph 25.3 mph N/A   Mostly Cloudy
2:57 PM 82.0 °F 83.8 °F 64.9 °F 56% 30.05 in 10.0 mi South 15.0 mph 20.7 mph N/A   Mostly Cloudy
3:57 PM 80.1 °F 81.7 °F 64.0 °F 58% 30.02 in 10.0 mi SSE 15.0 mph 19.6 mph N/A   Partly Cloudy
4:57 PM 82.0 °F 83.0 °F 62.1 °F 51% 30.01 in 10.0 mi SSE 15.0 mph 20.7 mph N/A   Mostly Cloudy
5:57 PM 84.0 °F 84.5 °F 62.1 °F 47% 29.99 in 10.0 mi SSW 10.4 mph 19.6 mph N/A   Clear
6:57 PM 80.1 °F 81.5 °F 63.0 °F 56% 29.99 in 10.0 mi South 11.5 mph - N/A   Scattered Clouds
7:57 PM 78.1 °F - 62.1 °F 58% 29.99 in 10.0 mi SSE 10.4 mph - N/A   Clear
8:57 PM 75.0 °F - 62.1 °F 64% 29.99 in 10.0 mi SSE 8.1 mph - N/A   Partly Cloudy
9:57 PM 73.9 °F - 63.0 °F 68% 29.99 in 10.0 mi SSE 16.1 mph 24.2 mph N/A   Clear
10:57 PM 72.0 °F - 59.0 °F 64% 30.00 in 10.0 mi South 11.5 mph - N/A   Clear
11:57 PM 71.1 °F - 57.9 °F 63% 30.00 in 10.0 mi SSE 9.2 mph - N/A   Clear